Find Starlink 5909

NORAD ID: 55938 Int'l Des: 2023-037 Owner: SPXS Country: US Constellation: starlink operational
LEOCIRCULAR

当前视图

正在加载3D地球...

About Starlink 5909

Starlink 5909 (NORAD 55938) is a starlink constellation satellite (v1.5) launched Mar 17, 2023 by SPXS of US. It operates in LEO, CIRCULAR orbit with a mass of 305.00 kg.

关于 Starlink 5909

正在加载描述...

即将过境

Passes for default location (London). Set your location on the main map for personalized predictions.

高度历史

Loading altitude history...

两行轨道根数

1 55938U 23037AA 26194.75876321 .00000654 00000-0 62627-4 0 9998
2 55938 70.0000 326.6112 0003067 271.4418 88.6390 14.98323668182862
Epoch: Jul 13, 2026 • Age: 23 hours

当前状态

高度 577.2 km
远地点 / 近地点 N/A
速度 7.57 km/s
星下点 33.87°N, 61.68°W
发射日期 Mar 17, 2023
运行时间 3.3 years
类型 internet

技术详情

分类 Payload
质量 305.00 kg
干质量 290.00 kg
总质量 305.00 kg
长度 0.20 m
直径 2.80 m
跨度 9.00 m
形状 Box + pan
制造商 SPXS
平台类型 Starlink
阶段状态 In Orbit
所有者/国家 SPXS/US

Most Searched